Theta_e
290 291 291 291 291 291 290 290 290 290 290 290 290 290 290 290 290 289 289 289 289 289 290 290 289 289 289 289 289 289 289 288 288 289 289 289 289 292 298 300 301 304 306 308 310 312 314 316 317 318 319 320 321 322 323 324 327 331 333 332 333 333 332 332 333 334 334 334 334 335 335 335 336 336 336 337 337 337 338 337 337 335 335 335 334
290 290 290 290 290 290 290 289 289 289 289 289 290 289 289 289 289 289 289 289 289 289 290 288 289 289 289 289 289 288 288 288 288 288 288 289 289 290 296 297 299 301 303 305 307 310 312 313 314 316 318 319 321 322 323 324 326 328 332 332 332 332 332 332 332 332 334 334 335 335 335 335 335 336 336 336 336 336 336 335 335 335 337 336 335
289 289 289 289 288 288 288 289 289 289 289 289 290 290 289 289 288 288 288 288 288 289 289 288 288 288 288 288 288 288 287 287 287 287 287 288 288 289 291 296 297 299 301 303 306 307 309 310 313 315 317 319 320 321 322 324 326 328 329 331 331 331 331 332 332 332 332 333 334 334 334 334 335 335 336 336 336 336 335 335 335 335 335 335 336
290 289 290 288 287 287 287 287 288 288 289 289 289 289 289 289 289 289 288 288 288 288 288 288 287 287 287 287 287 287 287 287 287 287 287 287 287 288 288 291 295 297 299 301 303 305 307 309 311 313 314 316 316 318 319 321 323 325 326 329 332 332 333 334 332 332 332 332 332 333 334 335 334 335 336 336 336 337 337 336 336 336 335 335 335
289 289 291 287 287 287 287 288 287 287 288 289 289 288 288 288 288 289 288 288 288 287 288 287 286 286 287 287 286 286 286 286 286 286 287 287 287 287 287 288 289 294 296 298 300 303 305 307 308 309 309 311 313 314 316 318 320 321 322 324 326 328 332 333 332 331 331 331 332 332 331 332 335 335 335 336 336 336 336 337 336 335 335 335 335
289 288 288 287 287 287 287 287 287 287 287 287 287 288 287 287 287 287 289 287 286 287 287 286 286 286 286 287 286 286 286 286 286 286 286 286 287 287 287 287 287 288 290 296 298 301 302 304 304 305 307 309 312 313 313 314 315 317 318 320 322 324 326 327 329 330 330 331 331 332 331 331 331 333 335 336 336 336 336 336 336 336 335 335 334
289 289 287 287 286 286 286 287 287 288 287 287 286 286 286 286 287 286 286 287 286 287 287 286 286 286 286 287 286 286 286 286 286 286 286 286 286 286 287 287 287 288 290 290 297 298 299 300 302 303 305 307 307 307 308 310 312 314 316 318 320 322 323 325 325 325 326 330 330 331 330 331 331 331 331 332 333 335 335 334 335 336 336 336 335
288 288 287 286 286 285 286 286 287 287 287 287 287 285 285 286 286 286 285 285 286 285 286 286 286 286 286 286 286 287 286 286 285 285 286 286 286 286 286 287 287 287 293 291 292 293 296 298 300 302 303 303 303 304 306 308 310 312 314 316 318 320 320 321 322 322 323 326 329 329 331 331 331 331 331 331 332 331 335 335 334 335 336 336 336
288 288 287 287 286 286 286 286 287 286 286 286 285 286 285 286 285 286 285 284 285 285 285 285 285 286 286 286 286 286 285 285 285 285 287 285 285 286 286 286 288 293 289 290 287 287 292 295 298 299 300 300 299 301 304 307 308 310 312 314 316 317 317 318 319 321 321 322 324 326 328 329 330 330 331 330 331 331 331 334 335 335 335 335 336
288 288 287 287 287 286 286 286 286 285 285 284 284 285 284 284 284 285 285 284 284 284 284 285 285 285 285 285 285 286 286 285 285 288 285 285 285 285 285 286 287 289 288 286 286 287 287 291 296 297 297 297 297 299 303 305 307 308 309 311 312 314 315 316 318 319 320 320 320 322 323 325 327 329 330 331 330 330 330 330 331 334 335 335 335
288 288 287 287 286 286 286 285 286 285 284 284 284 285 285 284 283 284 285 284 284 284 284 284 284 284 284 285 285 285 285 286 286 285 285 285 285 288 288 287 287 285 285 286 286 286 287 287 288 288 288 295 296 298 300 302 302 304 306 308 310 312 314 315 316 316 316 317 318 319 320 322 323 324 326 330 330 329 330 330 331 330 331 334 335
288 288 287 287 286 286 286 286 285 285 284 283 284 283 283 283 283 284 284 285 285 284 284 283 283 283 284 284 284 284 284 285 285 285 286 285 285 286 285 286 285 285 285 285 285 286 287 287 290 287 288 291 295 296 297 299 298 301 304 306 308 311 313 313 314 314 314 315 316 317 318 320 322 323 324 325 328 330 331 330 331 331 330 331 333
289 288 287 288 288 287 286 285 285 285 284 284 284 284 284 284 285 285 284 283 283 283 282 282 282 281 282 282 283 284 285 285 284 284 284 285 284 284 284 284 284 284 285 285 285 286 287 287 286 286 287 288 289 294 295 296 296 297 301 304 307 309 310 310 311 313 313 313 314 316 317 318 320 322 322 323 325 327 329 330 330 330 331 331 331
289 288 289 288 287 287 286 286 286 285 285 286 286 288 286 284 284 282 283 282 282 283 283 283 280 279 279 279 281 282 283 283 282 283 284 284 284 284 284 284 284 284 285 285 285 286 285 286 286 286 287 287 287 287 288 289 291 296 299 302 304 305 306 307 309 310 311 312 312 314 315 316 316 318 320 322 322 323 326 328 329 331 330 330 330
288 289 288 288 287 286 286 286 285 286 286 285 285 284 284 284 283 282 282 282 283 283 282 282 280 280 280 279 277 278 281 281 282 282 282 283 284 284 284 283 283 284 285 285 284 284 285 286 286 286 286 286 287 287 288 291 292 296 298 299 299 302 304 306 308 309 311 311 311 312 312 314 315 316 318 321 321 321 322 323 325 327 329 331 330
288 288 288 287 287 286 287 286 286 286 285 284 284 284 284 284 283 283 283 281 281 281 283 282 281 280 276 277 277 277 274 275 278 281 283 283 283 283 283 282 283 283 284 283 283 284 284 284 284 285 285 286 286 287 288 288 293 295 296 295 296 300 302 305 308 309 310 309 310 311 312 313 316 317 318 318 320 321 321 322 323 323 325 328 329
288 287 288 288 288 287 287 287 286 286 286 285 284 284 284 284 284 283 283 282 281 282 282 282 281 282 280 278 276 275 274 277 278 279 281 281 280 280 282 283 282 282 283 282 283 283 283 284 284 284 284 285 285 286 286 287 287 291 290 294 297 299 302 305 307 307 308 308 308 310 311 313 314 314 315 316 318 320 320 320 322 322 322 323 327
288 288 287 289 287 287 287 286 286 286 286 286 285 285 284 284 284 284 283 283 282 281 281 283 283 283 282 282 280 276 276 278 278 274 279 279 282 282 282 281 281 281 281 281 282 282 284 284 283 283 284 284 285 285 285 285 289 287 287 288 298 300 302 304 305 307 307 308 308 308 310 311 312 313 314 315 317 318 319 319 320 320 321 322 322
288 288 288 288 288 287 287 287 286 286 287 286 285 285 285 285 286 284 284 284 283 281 281 281 282 281 282 282 282 282 281 278 275 277 275 278 280 280 280 280 281 281 282 282 282 282 282 283 283 283 283 284 284 284 285 285 289 290 295 296 297 299 301 303 305 306 307 307 309 309 310 310 310 311 312 314 315 316 317 317 319 320 320 321 322
288 288 288 288 288 287 287 287 286 286 287 286 285 285 285 285 286 285 285 284 283 282 281 282 280 280 282 280 281 282 281 280 280 277 276 274 276 280 281 281 281 281 281 281 281 282 282 282 282 282 283 283 284 284 284 284 284 285 287 293 297 299 301 302 303 305 306 307 308 308 308 309 310 311 311 311 312 314 315 317 318 319 320 321 321
288 288 287 287 289 288 287 287 286 286 288 287 286 286 285 284 284 284 283 284 283 284 282 282 281 280 281 280 280 280 280 280 280 279 277 275 275 276 276 279 280 280 281 281 282 282 282 282 282 283 283 283 283 284 284 284 284 284 289 293 296 298 299 301 302 304 305 306 307 307 307 308 309 310 310 309 310 311 313 314 315 316 318 318 319
287 287 287 287 287 287 287 286 286 286 288 286 286 285 285 285 285 284 284 283 284 283 283 283 282 282 282 281 280 279 279 278 278 278 278 277 274 275 276 276 276 278 280 279 280 281 281 282 282 282 282 282 283 283 283 283 284 284 287 292 294 296 298 300 301 303 305 306 306 306 306 306 307 308 308 308 309 309 310 311 312 314 315 316 317
287 288 288 288 287 288 288 287 287 288 288 287 286 286 286 286 286 285 284 283 283 283 283 283 283 283 282 281 280 280 278 278 277 278 277 276 276 276 277 277 277 277 279 280 281 281 281 282 281 281 282 282 282 283 283 283 286 287 289 289 292 294 297 299 300 303 304 304 305 305 305 306 306 307 307 308 308 309 309 310 311 312 313 314 315
288 288 288 289 289 288 289 288 287 287 286 286 285 285 286 286 285 285 284 284 283 283 282 282 282 282 281 282 281 281 281 279 279 279 278 277 277 276 276 277 277 277 279 280 280 280 281 281 281 281 282 282 282 283 283 284 284 287 287 288 290 293 295 297 299 301 303 304 304 305 305 305 306 306 306 306 307 307 308 308 309 310 311 312 314
287 287 288 288 289 288 288 288 287 287 288 287 287 286 286 286 285 284 284 283 283 282 282 282 282 281 281 282 282 281 281 281 281 280 279 279 278 276 277 278 275 276 277 278 278 280 280 280 281 281 281 282 283 283 282 283 283 285 288 289 290 291 293 296 299 301 302 302 303 303 303 304 305 306 306 305 306 306 306 307 308 308 309 310 311
286 286 287 287 287 288 288 287 287 287 287 287 286 286 285 284 284 283 282 283 283 282 282 282 282 282 283 282 282 282 281 282 281 280 279 278 277 276 276 277 276 276 277 277 278 278 278 281 281 281 282 281 282 282 282 282 283 286 287 285 285 288 289 291 294 296 299 300 301 302 303 304 304 305 305 305 305 304 305 305 306 306 307 307 308
285 286 286 285 285 285 285 284 284 284 284 283 284 283 283 283 282 282 282 282 282 282 282 282 282 282 282 282 282 282 282 282 281 280 280 280 279 278 277 274 275 276 275 277 276 277 277 280 280 281 281 282 282 282 282 281 283 285 286 282 281 286 287 289 291 294 296 298 299 300 302 303 303 304 304 304 303 303 303 304 304 305 305 306 307
285 285 284 284 283 282 282 281 282 282 282 282 282 282 282 281 281 281 281 283 282 281 282 282 281 282 282 282 282 281 282 281 281 281 281 281 281 280 279 277 274 272 275 274 275 275 278 277 279 280 281 281 282 281 283 283 281 284 285 282 281 283 286 288 290 292 294 296 298 300 301 302 303 303 304 303 303 303 303 303 303 304 305 306 307
283 283 282 282 281 281 280 280 280 281 281 281 281 281 281 281 280 280 280 281 281 281 281 281 281 281 281 281 281 281 281 281 281 281 281 281 281 281 280 278 277 274 272 273 274 274 276 278 276 277 280 280 280 281 280 280 282 283 282 281 281 281 284 287 289 291 293 293 295 297 299 300 301 302 303 303 303 304 304 304 304 304 305 306 307
281 281 281 280 280 281 280 280 280 280 280 280 280 280 280 280 280 280 280 280 280 280 280 280 280 280 281 281 281 280 281 280 280 280 280 280 280 280 280 280 279 276 275 273 273 276 275 278 276 277 279 279 280 280 280 280 283 283 281 280 280 280 285 286 288 289 290 291 292 293 296 298 300 301 302 303 304 304 304 304 304 304 305 306 307
280 279 279 279 279 279 279 279 279 279 279 279 279 279 279 278 279 279 279 279 278 278 278 279 279 279 278 278 279 278 279 279 279 279 280 280 280 280 279 280 279 278 276 275 273 275 278 275 277 278 278 278 279 279 280 280 282 282 281 280 280 283 285 284 286 287 288 290 291 291 292 294 296 299 300 301 302 303 303 303 304 304 305 305 306
279 279 278 278 278 278 278 278 278 278 278 278 278 278 278 278 278 278 278 278 277 277 277 278 278 278 277 277 278 278 278 278 278 279 279 279 280 279 279 279 279 278 278 276 274 273 278 276 277 277 278 278 279 278 278 279 281 284 281 280 280 284 282 281 284 285 286 287 288 289 290 291 292 295 297 299 300 301 302 302 302 303 303 303 302
278 277 277 277 277 277 277 277 277 277 277 277 277 277 277 277 277 277 277 277 276 276 277 276 277 277 277 277 277 278 278 277 278 278 278 278 279 279 279 278 278 278 277 275 274 274 276 278 277 277 278 278 277 278 278 278 278 279 282 281 281 280 280 280 280 283 285 286 287 288 289 289 290 293 295 296 297 298 299 299 299 299 298 297 297
277 276 276 276 276 276 276 276 276 276 276 276 276 276 276 275 275 276 276 276 275 275 275 275 276 276 276 276 276 276 277 277 277 277 277 277 277 277 277 277 277 277 277 276 275 274 273 276 276 277 277 278 276 278 277 277 277 279 278 279 279 279 279 279 279 280 284 285 286 287 288 289 289 290 291 291 293 295 295 295 294 293 293 294 294
276 275 275 275 275 275 275 275 275 275 275 275 275 275 275 275 274 274 275 275 274 274 274 274 275 275 275 275 275 276 277 276 276 276 277 277 277 277 276 277 276 277 277 277 275 274 274 274 276 276 276 277 277 276 278 278 278 279 278 278 278 279 280 280 279 280 283 285 285 286 287 288 288 289 290 290 291 291 292 292 292 292 292 293 293
274 275 275 274 274 274 273 274 274 274 274 274 274 274 274 274 274 274 274 274 274 274 274 274 274 274 274 274 274 275 275 275 275 275 276 276 276 276 276 276 276 276 277 277 276 275 274 273 275 275 276 276 276 277 278 278 277 277 277 278 279 278 279 279 279 279 281 284 285 285 286 287 288 289 290 290 290 290 290 291 291 291 291 291 291
273 273 273 273 273 273 273 273 273 273 273 273 273 273 273 273 273 273 273 273 273 274 274 274 275 274 274 274 274 274 274 274 274 274 275 275 275 275 275 276 276 276 277 277 276 276 275 273 274 275 276 276 276 277 277 276 276 276 277 277 277 277 278 278 279 280 283 284 284 285 285 286 286 287 288 288 288 289 289 289 289 290 290 290 290
272 272 272 272 272 272 272 272 271 271 271 272 272 272 272 273 273 273 273 273 273 273 273 273 273 274 274 274 274 274 274 273 273 274 274 274 275 275 274 275 275 276 275 276 276 275 275 274 274 274 275 274 274 275 276 276 275 275 275 275 276 277 277 276 277 279 280 280 280 280 283 284 285 286 287 287 287 287 289 289 289 289 288 288 289
271 270 271 271 271 271 271 271 270 270 271 271 271 271 271 271 271 271 272 272 272 273 274 274 274 275 275 275 275 275 275 275 275 275 276 276 276 275 276 275 276 275 275 274 275 274 274 273 274 274 274 275 274 273 275 276 275 275 274 274 274 275 276 276 276 278 279 279 282 284 283 283 284 284 285 286 287 287 288 288 288 288 288 288 289
270 270 270 270 270 270 269 269 270 270 270 270 270 270 271 271 271 272 272 273 273 273 273 273 274 274 274 274 274 275 275 275 274 274 274 274 275 275 276 275 275 275 274 274 274 274 274 273 273 273 273 273 274 274 275 275 274 274 275 274 273 274 274 276 276 276 278 279 278 279 282 283 283 283 285 285 286 286 287 287 287 287 286 287 288
269 269 269 269 268 268 269 269 269 269 269 269 270 270 271 271 272 272 272 272 272 272 272 272 273 273 273 273 273 274 275 277 278 278 278 278 276 274 275 275 275 275 274 274 274 274 273 273 273 274 273 272 273 273 272 272 272 272 274 275 273 274 275 275 276 277 278 277 277 278 278 279 279 279 279 279 280 283 283 285 285 285 286 287 288
268 268 268 268 268 268 268 268 268 268 268 269 271 273 274 272 272 272 272 272 272 272 271 271 272 272 272 273 273 276 276 276 277 277 278 278 278 277 275 275 275 274 274 274 274 273 273 272 272 273 272 272 272 273 273 273 274 274 274 273 272 274 274 274 275 276 277 277 276 276 277 279 278 278 278 278 280 281 281 281 281 283 285 287 287
267 267 267 267 267 267 267 267 267 268 268 269 272 274 275 275 273 272 272 272 272 272 271 271 271 271 272 272 272 273 274 275 274 276 276 277 277 278 278 278 278 274 273 273 273 273 273 272 273 273 272 272 273 274 273 273 274 274 273 273 273 273 272 272 271 274 277 276 275 275 275 277 278 276 277 278 279 280 281 281 285 285 286 287 287
267 267 267 267 267 267 267 267 267 267 267 271 273 274 275 275 275 273 272 272 272 271 271 271 271 271 271 271 272 272 272 272 272 272 274 276 276 276 277 277 277 278 278 274 273 272 273 272 272 273 273 273 273 274 274 274 273 274 274 274 273 273 272 272 272 272 275 278 275 274 274 277 277 276 276 278 279 280 280 283 285 286 286 287 287
266 266 266 266 266 267 267 267 266 267 267 271 273 274 275 275 276 275 272 272 272 271 271 271 271 271 271 271 271 271 271 274 274 272 272 272 274 276 276 276 276 277 277 278 278 275 274 273 272 272 273 274 274 274 275 275 276 274 274 274 273 273 273 273 273 273 275 277 275 274 273 276 277 276 276 277 278 279 280 283 285 286 286 286 287
266 266 266 266 266 266 266 266 266 267 267 270 273 274 275 275 276 275 272 272 271 270 270 270 270 270 270 270 270 270 271 271 272 272 271 272 271 271 271 271 271 273 275 276 276 277 276 273 273 272 274 275 274 275 277 277 275 274 274 274 274 273 273 273 274 275 276 278 275 274 273 274 276 276 275 277 278 279 279 282 285 285 286 286 286
265 265 266 265 266 266 266 266 266 266 266 272 273 274 275 275 276 275 272 271 270 270 270 270 270 270 270 270 270 270 270 270 271 272 271 271 271 271 271 271 272 272 272 272 272 272 272 272 272 272 272 273 274 275 276 277 276 276 276 276 276 275 275 275 274 274 275 277 276 274 270 274 276 275 275 276 278 277 278 282 284 285 285 286 286
266 266 265 265 265 265 265 265 265 265 266 271 273 274 274 275 276 272 271 270 270 270 270 270 270 270 270 270 270 270 270 270 273 275 275 273 272 271 271 271 271 272 272 275 277 277 275 274 273 273 273 273 276 274 276 275 276 276 277 277 276 274 271 270 269 272 272 275 276 274 272 272 275 274 274 276 277 276 277 278 282 284 285 285 286
264 264 264 264 265 265 265 265 265 265 265 269 272 273 274 275 274 271 271 270 270 269 270 270 270 271 271 271 271 270 271 270 273 276 276 276 271 271 271 271 271 271 271 273 276 278 278 279 279 279 279 279 279 280 280 280 277 277 275 273 272 273 271 268 269 270 271 274 274 275 273 272 274 274 274 276 276 276 277 278 279 283 284 285 286
264 264 264 264 264 264 264 264 265 265 265 268 272 273 274 275 274 271 271 270 270 270 270 271 271 271 271 272 273 272 271 271 275 276 277 275 271 271 271 270 270 270 271 272 273 274 277 278 278 279 279 279 279 280 280 280 281 279 275 272 273 273 271 270 268 270 271 273 274 276 273 272 274 275 274 275 276 277 278 278 279 280 284 284 285
263 264 264 264 264 264 265 265 266 265 265 267 271 273 274 274 274 271 271 270 269 270 270 270 271 271 271 272 273 274 273 274 277 277 276 275 272 272 271 270 270 270 271 272 272 272 272 272 273 273 274 276 275 275 275 278 279 279 277 275 276 274 272 272 271 271 270 272 275 277 272 272 274 275 275 273 273 276 278 278 278 278 279 279 280
Wind_Speed
7 7 6 7 7 7 7 7 7 6 6 7 7 8 8 8 8 8 8 9 8 9 9 8 8 7 8 9 8 8 8 8 8 9 8 8 8 11 19 20 20 21 21 21 21 21 20 20 20 21 21 21 20 20 21 23 24 22 24 25 26 25 24 23 22 22 22 23 23 22 22 21 21 20 21 21 21 21 21 21 22 22 23 22 23
6 6 6 7 7 7 7 7 7 6 6 7 7 7 7 7 8 8 8 8 8 8 8 8 7 7 7 8 8 8 8 8 9 8 9 9 9 9 16 18 20 20 21 21 20 20 19 19 20 20 20 20 20 20 20 21 23 25 24 23 22 25 26 25 25 24 23 23 23 24 23 23 22 21 21 22 23 22 23 23 23 23 22 22 23
5 6 5 6 6 6 7 6 7 7 6 6 6 6 6 6 7 7 7 8 7 7 7 8 7 7 7 7 9 8 8 8 8 8 9 9 9 9 10 17 18 19 20 20 20 19 19 19 20 19 20 19 20 20 20 21 21 22 24 24 24 22 22 26 27 27 25 24 23 24 25 25 24 23 22 22 22 23 23 23 23 23 23 23 23
4 5 5 6 6 6 5 5 6 6 6 6 7 7 6 6 6 5 6 6 7 7 6 7 8 7 7 8 7 7 8 8 8 9 9 9 9 8 8 9 14 18 18 19 19 19 19 19 19 19 20 21 22 21 21 21 22 22 22 23 23 25 24 20 24 27 28 26 26 25 24 25 25 24 24 23 22 22 22 22 22 23 23 23 23
4 4 4 5 5 6 6 6 6 6 6 7 7 7 7 7 8 7 8 8 8 8 6 6 8 8 8 8 7 7 7 7 8 8 9 9 9 8 8 8 8 12 16 17 17 18 17 18 19 20 21 21 21 22 21 21 21 22 22 22 23 22 22 25 23 22 21 26 26 27 26 25 25 25 24 23 23 23 23 22 22 23 23 25 23
2 3 3 5 5 5 5 6 6 5 6 6 7 7 7 7 8 7 8 8 9 9 9 9 8 7 8 8 7 8 7 8 8 9 9 10 9 9 8 7 7 7 7 12 14 14 16 18 20 20 20 20 20 21 22 22 23 23 24 24 23 23 23 22 22 20 22 22 24 29 27 27 25 26 25 24 23 23 24 23 22 22 23 24 25
3 3 4 4 6 6 6 6 6 5 6 5 5 6 6 7 7 8 8 7 7 8 8 9 10 10 9 8 9 8 8 9 9 9 9 9 10 9 8 8 7 6 6 6 7 11 16 18 19 18 19 20 21 23 23 23 23 23 24 24 24 24 24 23 22 22 23 23 23 24 26 27 26 24 26 26 25 24 24 25 23 21 21 23 24
4 4 4 5 5 6 6 6 6 5 6 6 5 6 6 6 7 6 9 9 9 9 8 9 9 10 10 9 9 9 9 9 9 9 9 9 9 9 8 8 7 7 7 5 5 7 16 16 17 19 20 21 22 23 23 23 23 24 24 24 23 23 23 23 22 22 21 22 23 23 23 25 26 28 26 26 27 27 25 25 25 22 21 21 22
5 4 4 5 6 6 7 6 5 5 6 6 5 5 5 6 7 6 5 8 9 10 10 9 9 10 10 11 10 10 9 9 9 9 10 10 10 9 7 7 8 8 6 6 7 7 10 14 16 19 20 21 21 22 23 23 24 24 24 23 24 24 24 24 23 22 21 21 22 22 21 21 24 24 25 29 27 27 27 26 25 25 24 22 21
6 5 5 6 5 6 7 7 6 6 6 6 7 6 5 5 8 7 6 6 8 9 10 10 9 10 10 11 12 10 10 9 9 10 9 11 10 8 8 7 6 6 6 6 7 7 6 9 15 16 17 18 20 22 23 23 24 25 24 23 24 24 24 24 23 22 21 22 22 22 21 20 19 20 24 27 27 28 29 29 27 25 25 24 23
8 7 7 7 7 6 7 7 6 6 6 6 6 7 6 6 6 9 7 6 6 8 9 9 10 9 11 13 11 11 10 10 10 9 9 10 9 8 6 7 5 5 6 8 7 7 7 7 6 7 9 16 19 22 23 24 24 24 24 24 23 23 24 24 23 23 22 22 23 23 23 22 21 20 19 21 25 27 29 29 28 27 27 26 24
8 8 7 8 8 8 8 7 6 6 6 7 7 7 8 8 8 8 9 9 6 6 7 8 10 10 11 11 10 11 11 11 10 10 10 9 8 5 6 6 5 7 9 8 7 6 7 7 7 7 7 11 17 20 22 23 24 24 24 24 24 23 23 24 25 25 24 23 23 23 23 23 23 22 20 19 21 23 24 28 28 30 27 27 27
8 7 8 8 8 8 7 8 7 6 6 8 8 8 7 7 7 6 8 10 8 6 5 5 9 11 9 10 10 9 11 10 9 9 10 8 5 6 5 6 8 10 8 6 6 7 6 7 7 6 7 7 9 15 19 22 21 22 23 24 24 24 24 25 25 26 25 24 22 22 22 23 23 24 23 21 20 20 21 23 27 28 28 29 27
8 7 8 8 9 8 7 9 9 8 8 8 7 8 9 8 6 8 5 7 8 5 6 5 7 8 14 14 12 8 7 8 7 9 7 4 4 6 9 10 10 8 6 6 5 6 7 6 6 7 7 8 8 8 10 12 12 19 23 24 25 26 27 27 26 26 25 25 24 23 23 24 24 24 24 23 22 22 20 18 20 25 28 29 27
9 9 8 8 8 8 8 9 8 8 8 9 9 9 8 9 9 8 10 6 7 5 6 4 9 8 8 11 11 16 8 3 6 5 4 5 10 11 10 8 8 5 5 6 6 6 5 5 6 7 8 7 7 9 10 11 13 23 25 25 26 26 27 26 26 26 26 26 26 25 24 23 23 23 24 24 23 24 23 22 20 20 21 25 28
9 9 9 9 9 10 10 9 9 7 8 9 10 10 10 9 9 9 8 11 8 7 4 5 5 6 10 6 12 10 17 3 6 10 7 12 10 10 6 5 5 6 6 6 5 5 5 6 8 7 5 7 9 10 9 9 16 24 25 25 26 26 26 26 26 26 27 26 26 25 24 23 23 23 24 24 24 24 24 22 22 22 21 19 22
8 9 9 10 10 10 10 10 10 9 8 9 10 10 10 9 10 10 10 10 13 10 7 5 6 7 8 9 8 9 8 14 13 17 7 7 6 4 5 8 9 7 5 5 4 5 7 7 5 5 8 10 8 8 9 11 11 7 13 21 26 27 27 27 27 27 26 26 27 26 24 25 25 25 24 24 25 25 24 24 23 21 22 23 21
9 9 10 10 10 11 10 10 10 9 9 10 10 10 10 11 11 10 11 10 12 13 11 6 7 8 9 10 10 11 15 13 10 17 4 5 13 8 11 7 6 5 5 5 7 8 5 5 6 10 10 7 8 10 10 11 9 9 10 15 28 28 28 28 27 27 26 26 25 25 25 25 24 24 24 24 24 24 24 25 24 23 23 24 24
10 9 10 10 10 10 10 10 10 10 9 9 10 11 10 10 10 9 11 11 10 13 15 11 8 6 7 10 11 11 11 10 12 13 20 9 7 6 5 5 6 8 9 9 8 6 6 8 10 9 9 8 9 10 9 10 15 18 26 27 27 26 26 27 27 27 26 26 25 24 24 25 25 25 24 24 24 24 24 25 25 24 23 24 25
10 10 10 11 11 11 11 11 11 11 10 10 11 10 9 9 10 11 11 10 11 12 15 13 11 10 6 8 10 10 10 11 10 11 14 19 18 6 9 9 10 9 9 8 9 11 11 8 8 9 8 8 9 10 10 10 9 10 10 23 26 27 27 27 27 28 27 27 25 25 25 24 24 25 25 25 25 24 23 23 23 24 24 24 23
9 10 10 10 11 11 11 11 11 11 10 10 10 11 12 12 11 10 10 11 10 11 12 13 11 12 11 9 10 10 10 10 10 9 10 15 20 17 9 6 8 9 9 9 10 8 8 9 8 8 8 9 9 9 10 9 8 9 14 25 27 27 28 28 28 27 27 27 26 25 24 23 23 24 25 26 25 25 24 24 24 25 26 25 24
8 8 9 9 10 11 11 11 12 12 11 11 12 11 11 11 11 11 12 13 11 11 13 13 12 12 12 11 11 10 10 9 8 9 10 11 17 20 10 11 17 12 6 5 8 8 9 8 8 8 9 8 8 8 8 9 11 11 13 24 25 27 28 28 28 27 26 26 26 25 24 25 25 26 25 25 25 24 24 26 26 26 26 27 26
9 9 10 10 10 10 10 11 11 11 11 11 11 11 10 10 10 11 11 12 11 12 14 14 14 14 13 11 12 12 12 12 11 9 10 12 13 17 15 6 14 19 11 6 8 7 8 9 9 9 7 7 7 9 10 11 11 10 17 23 26 28 28 28 27 27 26 26 26 26 26 26 26 25 24 23 23 23 24 24 25 25 26 26 26
9 10 10 10 10 11 12 12 11 10 10 9 9 9 9 9 10 10 11 11 11 12 12 14 15 13 14 11 12 12 11 10 9 9 9 12 13 17 17 10 11 12 10 7 8 12 9 9 8 8 8 9 9 11 11 9 8 16 19 22 26 26 26 26 27 26 27 26 26 26 26 26 25 25 24 23 23 23 25 26 25 25 26 26 26
10 11 10 11 10 10 9 9 9 9 9 9 9 10 10 10 11 12 12 12 11 12 12 14 15 15 14 13 12 11 11 9 9 9 9 11 11 16 16 12 14 16 8 6 7 8 9 9 7 8 9 9 10 8 5 8 10 13 19 14 21 23 24 23 24 25 25 26 26 26 26 26 26 25 24 24 25 25 26 26 25 25 26 26 26
12 11 10 10 9 10 11 11 12 12 12 13 13 13 13 12 13 13 13 12 12 14 14 16 16 16 14 13 11 10 10 9 9 9 10 9 12 13 14 14 10 16 11 6 7 11 9 8 7 7 8 7 6 9 9 11 13 10 14 16 19 22 25 29 29 25 24 24 25 25 26 26 26 26 26 26 27 26 27 27 25 26 26 28 28
11 11 10 10 11 12 12 13 13 14 14 14 13 13 12 12 12 13 13 12 13 13 13 14 15 15 15 13 11 10 9 10 9 10 10 11 12 11 13 16 16 11 13 9 8 14 14 10 8 11 9 9 9 8 12 10 6 14 20 18 16 23 25 22 22 26 27 28 28 28 28 28 28 27 28 28 29 29 29 29 27 26 27 27 28
11 12 12 12 12 13 13 14 14 14 13 13 13 12 12 13 12 12 13 9 11 13 13 13 14 13 13 12 11 11 10 9 9 9 10 10 10 11 12 14 15 18 14 14 10 11 8 10 6 9 8 8 10 12 7 8 10 15 20 11 8 8 15 24 28 28 29 30 30 29 29 29 29 30 30 30 30 29 29 30 28 26 28 29 29
12 12 12 12 12 13 14 15 14 13 13 13 13 12 12 12 11 11 12 10 10 10 10 11 10 12 11 13 11 10 10 10 10 9 11 11 11 11 11 13 14 17 13 17 15 14 9 7 9 6 10 10 7 4 8 12 15 11 7 10 12 13 17 26 30 30 30 30 29 29 29 30 30 31 31 31 31 29 29 29 28 28 30 30 30
12 11 13 14 13 14 13 13 13 13 13 13 13 13 12 11 11 11 11 10 11 10 11 12 12 11 11 12 12 12 11 11 10 10 10 12 12 11 12 12 12 15 15 17 17 12 12 8 7 7 6 7 9 12 12 10 9 13 13 14 15 16 24 29 30 29 28 27 26 28 30 30 31 31 31 30 30 30 30 29 30 31 31 31 30
12 12 13 13 13 12 13 13 13 14 13 13 13 12 11 11 11 11 11 11 10 11 11 11 11 11 12 14 12 11 11 12 12 11 12 11 12 12 11 13 12 12 14 15 16 14 6 10 8 9 10 8 8 8 6 8 11 14 12 12 12 16 27 23 25 25 27 30 31 32 32 32 32 32 31 31 31 32 32 32 31 31 32 31 30
12 13 12 13 13 14 13 13 13 13 13 12 11 12 11 10 10 10 10 10 11 12 11 10 9 11 12 14 14 12 11 12 13 12 13 12 12 12 12 12 13 12 14 14 17 22 13 9 10 10 9 11 9 11 14 11 11 20 14 14 15 16 12 10 18 27 31 32 31 31 31 32 31 31 32 32 33 33 33 33 32 32 32 30 28
12 12 12 12 13 12 13 13 12 12 12 12 10 10 10 12 10 11 11 11 11 10 11 12 11 11 13 14 14 15 14 14 12 11 10 12 12 12 12 12 13 13 13 15 16 20 16 10 10 11 9 10 11 11 14 12 11 11 12 12 12 11 12 12 13 20 26 27 28 30 31 30 29 30 30 31 31 31 31 31 30 30 30 31 30
10 12 14 12 12 14 13 14 13 14 13 13 14 11 13 12 13 10 12 13 12 13 13 14 14 11 12 13 13 13 12 12 13 13 12 13 13 14 13 12 13 14 13 16 14 16 19 13 13 10 12 9 14 9 13 11 11 9 12 11 11 11 11 11 11 9 20 26 29 30 30 30 29 30 31 30 30 30 30 30 31 32 31 31 29
13 13 14 12 14 12 14 14 13 13 12 14 13 12 12 12 14 13 12 13 13 14 13 13 13 11 12 12 14 13 10 12 13 13 13 13 12 13 15 13 15 15 15 15 16 16 18 17 13 13 12 9 12 12 13 11 12 11 12 12 11 10 9 10 11 10 18 27 29 29 30 31 31 31 30 29 28 29 29 30 30 33 32 31 31
12 13 11 14 14 13 14 14 14 13 14 11 12 11 12 13 13 13 13 12 13 13 15 15 13 12 13 14 15 14 13 14 13 14 12 14 12 11 14 14 14 16 15 14 16 16 16 16 15 13 11 11 10 12 10 10 12 11 11 11 12 11 11 11 11 11 14 25 29 31 30 31 30 28 28 29 29 30 31 31 32 33 33 32 32
13 11 13 12 13 14 12 13 13 14 13 14 14 13 13 12 13 14 14 14 14 13 14 13 16 15 15 16 16 13 14 13 16 15 14 14 13 14 15 14 15 13 15 14 15 15 15 16 14 12 12 13 10 11 11 11 10 12 11 12 11 12 12 12 11 11 18 29 30 30 30 30 30 31 30 30 30 31 31 32 34 33 32 31 30
14 12 13 11 11 13 13 13 13 13 14 13 13 13 13 11 12 12 12 12 12 14 15 15 15 14 13 14 15 15 14 15 15 15 18 22 19 17 18 16 16 14 14 14 14 14 16 17 16 16 13 13 11 10 11 12 12 13 11 10 11 12 11 11 10 9 8 9 9 12 19 22 25 29 29 29 30 30 29 30 30 31 31 29 29
12 13 11 13 12 12 13 13 14 14 13 12 12 13 13 12 13 14 14 14 13 13 12 14 14 15 16 14 16 15 15 14 15 14 12 13 13 16 15 16 13 13 13 13 15 16 16 18 16 15 16 13 12 12 10 12 13 13 13 10 11 9 11 10 11 9 9 11 15 23 21 19 20 19 24 29 29 30 29 29 29 30 28 28 28
12 11 13 12 13 14 14 14 14 13 13 12 12 11 11 11 13 15 16 16 17 16 17 17 18 18 18 18 18 19 17 16 16 17 17 16 15 16 14 13 15 16 16 15 14 13 13 14 15 15 13 14 12 11 8 11 12 12 11 10 13 12 11 10 11 11 9 10 11 10 13 18 20 23 27 28 30 30 30 28 28 28 29 28 29
11 12 13 13 14 15 14 14 14 14 12 12 11 12 14 16 16 16 17 17 17 17 18 18 18 18 18 18 18 19 21 25 29 27 26 24 17 15 14 13 15 16 16 16 13 17 16 14 16 13 13 14 14 12 11 10 13 12 9 11 13 12 11 10 9 10 10 12 10 11 11 10 12 12 10 11 12 19 21 26 23 29 29 28 28
12 13 13 13 13 14 15 15 14 13 12 11 16 25 23 17 17 16 16 17 17 17 18 18 18 17 18 17 18 27 29 29 29 30 30 30 31 25 19 15 15 16 16 17 17 15 18 19 17 18 16 17 14 13 14 13 12 11 12 11 11 11 10 10 10 10 9 11 11 12 11 10 11 11 11 11 10 13 12 13 12 13 18 24 25
14 14 14 14 14 14 15 15 16 14 12 12 24 25 26 28 20 17 17 17 17 17 17 18 18 18 18 18 18 21 24 26 24 30 30 31 31 32 34 33 29 23 19 20 18 18 16 18 16 16 19 21 17 14 14 11 11 13 12 10 12 10 11 10 12 9 10 11 12 12 13 11 11 12 11 11 11 11 11 11 16 23 26 25 27
13 13 14 14 14 15 14 15 15 14 14 20 26 27 27 28 26 19 17 17 17 17 17 17 17 17 18 19 17 15 18 18 20 21 24 29 31 32 34 33 33 35 33 24 19 16 18 16 18 19 17 16 21 17 13 11 10 11 12 10 12 11 12 12 11 12 8 11 12 11 12 10 9 9 11 10 10 10 11 16 23 26 28 29 29
14 14 14 15 15 14 14 16 16 15 14 22 27 28 28 29 29 26 18 17 16 17 16 18 17 17 18 18 20 15 18 29 26 22 19 25 31 36 36 36 36 37 34 37 36 27 19 20 20 21 20 18 17 16 14 14 13 13 12 13 13 11 12 13 12 11 12 11 11 12 14 11 10 10 11 10 10 10 12 16 24 27 29 29 28
14 15 15 16 15 15 15 16 16 16 16 21 28 28 28 29 29 26 18 17 16 16 17 17 17 18 18 17 18 19 16 20 18 20 23 19 22 23 23 20 23 26 33 35 35 37 32 22 18 20 18 16 16 15 15 13 15 12 11 12 13 13 13 14 15 14 11 9 10 10 11 9 8 9 12 10 9 10 11 15 24 28 29 31 31
14 14 15 15 15 15 15 15 15 15 14 24 27 29 29 30 30 28 18 18 16 16 18 17 17 20 19 18 20 18 21 18 17 22 23 23 22 19 21 22 20 23 20 17 21 18 18 16 18 18 19 17 18 16 13 13 13 12 13 14 15 14 13 12 10 9 9 9 10 9 12 10 10 10 10 10 10 10 10 14 24 28 29 30 30
13 13 13 13 15 16 16 16 16 16 16 26 28 29 30 30 32 20 17 17 17 18 15 16 20 15 18 19 17 21 20 22 27 35 32 27 22 25 20 22 23 20 20 23 29 30 25 19 17 18 17 18 24 21 18 15 14 14 13 12 12 12 10 10 11 9 12 10 12 11 10 10 7 10 11 10 10 12 12 12 18 27 29 29 30
14 15 14 14 13 15 17 16 16 17 17 23 29 31 31 33 27 18 18 17 17 15 18 18 15 19 18 18 21 18 19 23 29 38 38 36 26 22 25 24 19 22 20 20 29 35 35 36 38 39 38 37 36 35 35 37 27 19 13 14 14 12 12 12 13 11 12 10 9 10 12 11 9 9 9 11 12 13 12 12 11 18 26 28 29
15 15 14 13 13 12 15 16 15 16 18 22 29 30 31 32 28 20 17 17 14 19 17 18 19 14 20 33 26 23 23 22 33 38 40 33 25 24 22 21 25 21 24 16 17 20 32 36 38 36 35 34 34 34 34 34 33 25 16 16 13 12 14 12 13 10 11 10 10 10 10 12 10 9 10 10 11 11 11 11 13 13 20 24 29
14 14 14 14 14 13 13 15 18 19 17 19 27 30 33 32 26 19 17 13 15 13 16 16 20 18 16 21 31 27 27 29 38 36 40 32 22 21 22 21 20 20 19 20 17 22 18 21 21 21 22 27 24 20 19 28 28 27 16 16 13 14 13 14 15 12 13 12 11 11 11 9 10 9 10 8 11 10 10 10 12 13 13 11 11
Wind_Direction
354 354 350 351 349 346 344 343 341 339 346 347 349 342 341 340 341 338 338 338 338 340 339 340 337 331 328 325 325 323 324 325 326 324 323 319 317 314 319 321 321 320 320 320 320 319 319 320 320 319 318 316 313 309 309 308 306 299 283 273 267 266 264 257 251 250 249 250 250 250 249 247 245 243 239 239 239 239 236 233 235 237 240 241 243
347 346 352 346 346 344 344 341 340 334 341 341 342 340 333 334 333 334 335 332 331 331 333 326 323 322 320 318 320 322 323 324 322 323 319 317 314 311 315 318 318 318 319 319 319 319 320 322 323 321 319 318 316 313 311 308 305 304 300 290 280 269 262 264 262 254 251 250 249 248 248 249 247 243 240 239 241 240 242 242 243 238 232 231 236
346 340 344 343 340 342 340 338 337 336 333 331 333 333 329 326 325 327 328 326 323 321 322 318 313 314 313 315 319 321 320 318 316 314 313 310 310 308 309 312 313 315 316 317 319 320 322 324 324 324 322 322 320 320 318 316 314 313 312 302 288 281 279 271 266 261 258 254 249 248 249 247 246 247 245 241 239 239 240 242 243 243 243 239 233
349 338 338 341 334 332 328 332 326 325 331 327 329 329 326 321 317 312 313 313 314 316 315 314 312 313 316 314 311 314 316 316 314 313 308 306 305 304 304 305 310 311 313 315 317 320 322 324 326 327 327 324 322 320 318 317 316 314 315 317 311 299 288 278 271 267 263 261 256 253 250 249 247 243 242 242 241 238 237 238 240 242 241 242 239
335 326 328 330 327 325 326 323 318 321 325 325 327 327 327 326 325 326 324 326 324 321 317 310 313 315 316 312 311 311 310 312 309 308 306 305 303 302 301 302 302 305 307 310 313 316 322 325 328 328 326 324 323 320 318 318 318 319 319 316 318 321 311 298 289 284 270 266 266 260 257 253 247 245 241 240 240 240 238 235 235 238 240 241 241
293 306 308 314 313 310 308 311 310 316 319 325 327 327 324 325 322 326 325 327 324 321 323 320 315 311 312 311 309 307 310 308 306 304 303 302 302 300 301 300 298 299 302 304 308 317 325 325 326 327 328 329 329 329 328 325 322 320 318 316 315 314 314 316 318 305 290 277 267 267 261 258 254 249 244 239 239 241 240 238 234 234 237 240 240
272 266 287 294 301 304 300 292 302 308 315 312 316 315 318 317 320 322 317 317 313 314 315 312 313 315 314 313 309 307 307 305 305 302 300 299 299 298 300 301 298 298 294 291 303 317 322 322 325 327 329 331 332 330 328 325 322 320 317 316 314 313 312 311 314 321 326 314 286 265 266 265 259 253 255 253 246 242 243 244 241 235 234 236 239
271 267 278 282 283 285 283 286 291 303 304 305 312 310 308 307 308 312 316 314 317 313 314 312 311 311 312 311 309 307 305 305 304 303 301 299 294 297 299 298 299 297 298 304 311 315 321 323 325 328 330 329 330 329 327 325 324 322 320 318 317 317 317 315 314 316 320 327 324 299 274 263 262 264 257 254 254 250 244 244 243 238 235 234 234
270 265 265 275 274 272 276 278 280 287 295 296 296 291 301 303 301 299 294 304 310 309 311 310 310 308 310 309 306 305 302 303 302 301 302 296 294 295 295 294 298 298 305 313 320 317 319 320 324 329 328 327 327 326 325 325 325 324 322 320 318 317 316 316 317 318 318 321 324 328 320 293 272 263 263 263 258 256 253 248 243 242 238 235 232
287 280 272 269 263 264 272 273 272 275 278 287 285 287 286 286 294 293 295 295 301 304 305 305 306 306 306 306 304 302 297 297 298 298 295 292 289 293 290 291 292 293 304 314 315 315 314 317 325 326 323 322 323 324 324 324 325 324 321 319 318 317 316 315 317 317 319 322 321 322 320 318 313 294 274 263 260 258 257 254 250 244 240 236 234
292 291 288 284 280 272 270 270 269 267 274 280 287 286 283 280 279 290 287 273 276 291 295 299 299 301 302 299 298 294 294 292 293 292 287 281 286 289 299 296 295 304 308 312 312 313 312 314 318 318 316 318 320 321 323 323 323 322 320 319 318 318 317 317 318 317 317 318 319 318 316 313 310 310 311 296 273 261 259 256 254 250 249 243 236
288 288 285 283 282 279 276 274 272 268 273 282 284 284 282 286 283 282 289 292 279 271 281 294 297 299 295 293 289 292 290 287 286 284 280 281 286 293 295 291 303 303 310 307 309 309 307 306 310 308 311 313 315 318 319 320 320 320 319 318 318 317 316 317 317 317 316 315 314 312 312 311 310 308 308 311 309 289 268 261 259 257 252 250 247
282 285 284 281 278 279 280 281 273 270 267 271 274 279 272 263 272 276 285 288 290 282 277 281 305 299 289 286 291 285 281 281 276 274 272 279 293 294 285 297 299 300 296 302 303 304 301 304 303 306 309 310 311 313 314 316 316 315 315 315 315 315 315 315 314 313 312 312 310 309 310 310 311 313 311 310 309 309 300 278 264 262 257 253 249
277 279 278 275 277 275 273 277 281 277 272 273 279 278 283 281 278 287 252 268 281 280 285 320 296 300 314 314 304 286 258 267 263 257 271 285 278 289 295 290 287 288 293 296 295 294 297 301 306 309 307 305 308 312 313 312 310 310 312 313 314 313 312 311 310 310 310 310 309 310 309 308 308 307 306 308 310 309 309 307 290 273 265 259 255
278 280 281 277 268 269 273 275 275 274 283 284 283 283 279 281 280 278 292 264 269 258 257 224 280 294 289 303 309 320 308 254 262 264 280 277 291 287 280 274 280 279 283 290 295 293 295 298 302 303 304 308 313 313 308 306 306 311 314 314 313 311 309 308 308 309 310 310 310 309 307 305 303 302 301 304 306 305 306 308 307 302 289 272 261
277 279 279 275 273 274 278 278 275 270 269 279 282 283 282 280 278 274 271 290 280 279 217 221 229 296 304 284 303 310 305 285 312 284 275 283 272 268 262 271 270 281 284 284 282 290 292 299 299 299 301 313 311 307 306 306 308 313 313 312 311 309 306 304 305 307 308 307 307 306 305 304 303 304 305 307 305 302 302 304 302 305 304 297 289
276 276 275 275 276 276 278 279 279 277 276 276 277 273 276 275 277 278 274 274 286 280 272 218 229 201 253 299 299 283 260 294 319 289 284 264 245 245 273 280 279 275 272 273 279 288 297 293 293 300 313 308 303 308 311 307 305 300 309 311 308 305 303 303 304 304 304 304 304 304 303 303 303 303 303 302 303 305 306 304 304 306 307 303 302
278 277 274 274 275 273 272 274 273 273 272 270 274 279 276 273 270 271 274 267 268 281 280 258 228 230 210 231 239 270 295 299 306 305 262 183 284 266 272 253 261 265 267 277 292 291 281 286 298 304 300 296 304 307 302 298 300 304 306 304 302 302 302 301 300 300 301 301 300 300 301 301 301 300 299 301 305 308 305 304 305 306 304 301 301
279 275 274 273 273 274 272 270 269 269 269 269 270 268 267 266 269 266 266 271 272 276 276 277 267 235 230 228 241 245 256 282 289 296 302 281 205 278 250 253 259 273 279 283 284 278 282 291 293 293 291 294 299 298 293 292 298 300 302 302 302 300 299 299 299 299 300 299 298 297 298 300 300 298 298 301 304 305 305 305 306 306 303 299 297
275 273 271 271 270 271 269 268 269 267 267 265 266 265 266 263 258 259 264 264 265 266 275 272 268 271 224 238 243 249 250 257 255 269 280 298 296 236 250 264 270 266 269 274 276 282 284 280 282 283 286 291 296 290 287 287 289 292 293 300 301 300 299 299 299 299 298 297 297 297 297 295 295 297 298 300 301 302 303 307 309 310 309 307 306
269 269 267 265 265 266 266 266 266 266 264 265 264 262 261 264 266 264 261 261 254 259 264 270 265 264 268 252 255 255 257 252 259 257 269 287 284 291 287 263 247 249 257 258 265 263 267 274 274 278 285 289 285 285 285 286 289 298 299 298 296 297 297 296 296 295 294 294 295 295 295 296 295 297 298 298 298 300 303 305 307 308 310 309 308
279 274 273 267 266 266 265 265 265 264 265 262 263 263 262 261 260 261 262 265 264 261 262 267 265 263 255 259 259 261 261 264 253 256 261 245 276 289 291 299 295 279 237 237 262 262 264 265 269 275 279 278 277 278 285 289 293 291 286 292 296 297 297 296 294 293 292 292 293 294 295 295 294 294 294 293 295 299 303 302 299 301 306 308 307
278 275 269 271 271 270 271 270 269 269 270 269 265 265 266 267 268 267 266 266 267 266 265 265 266 265 258 249 247 247 248 254 256 256 262 277 283 280 285 241 273 288 279 256 270 256 260 266 271 269 265 267 277 283 282 278 274 274 286 296 297 295 294 294 293 293 293 292 292 292 292 293 293 292 291 292 293 297 299 299 299 299 300 303 304
287 286 284 279 276 278 276 278 278 278 276 274 275 275 275 276 275 275 274 270 268 269 269 269 266 263 258 251 249 246 244 245 253 255 256 267 272 280 284 293 270 258 279 277 261 275 257 257 250 260 266 274 275 273 269 270 281 291 291 287 289 291 292 292 292 291 290 290 291 292 293 292 291 290 290 291 292 294 297 297 297 299 300 301 301
304 301 300 300 301 297 297 292 290 285 283 281 281 280 282 282 281 280 277 274 273 270 270 266 264 262 262 252 247 242 245 244 250 255 255 261 265 278 277 278 280 283 263 255 269 259 261 262 257 252 260 266 267 256 260 280 288 274 276 280 290 296 298 300 304 302 299 296 295 293 292 290 289 289 289 289 290 292 296 296 297 299 300 299 297
309 307 310 312 309 309 308 306 303 302 301 298 296 295 292 289 288 286 285 283 280 276 272 270 267 263 259 258 249 249 248 250 252 254 257 258 262 265 281 278 263 276 280 248 255 272 257 245 251 249 251 246 247 266 277 281 273 270 301 308 301 298 297 298 298 297 298 299 297 296 294 290 288 289 292 290 287 290 294 293 295 299 299 298 296
310 310 312 310 308 306 304 303 301 297 295 292 288 287 285 283 283 282 281 281 279 277 274 271 268 264 259 256 258 255 256 257 254 253 252 252 259 263 271 284 282 258 276 264 252 245 265 263 242 261 250 255 251 258 272 262 275 310 309 295 286 285 289 295 301 302 299 295 293 292 292 292 291 290 291 292 291 290 292 288 286 295 296 296 295
310 310 309 308 306 306 304 300 298 294 291 289 287 286 285 283 281 278 277 276 277 276 276 272 270 268 268 267 266 264 261 254 251 252 249 253 255 258 261 266 276 288 274 273 264 260 231 258 235 216 246 250 262 259 239 279 298 290 282 285 283 296 298 298 297 297 295 294 292 290 290 289 289 289 288 289 289 289 287 282 282 293 296 294 293
311 310 307 306 304 303 301 300 298 295 291 290 288 286 285 283 281 280 279 279 276 277 278 279 276 278 277 275 271 270 263 261 256 253 256 255 253 254 249 256 264 271 290 281 266 278 250 220 251 239 214 233 240 249 288 282 276 268 278 287 293 293 294 296 295 293 291 291 291 291 290 289 287 286 285 285 286 286 285 282 285 290 292 291 291
309 308 307 304 302 300 298 296 296 294 293 291 290 288 286 282 280 276 275 275 274 273 273 274 273 273 274 274 275 274 272 268 264 259 257 257 256 252 251 251 250 258 269 277 281 258 274 246 211 248 213 242 260 267 263 256 252 278 288 289 289 288 289 291 292 291 290 291 293 294 293 293 290 287 286 285 284 286 284 287 292 289 289 288 289
309 307 305 303 303 300 298 297 296 295 293 291 288 286 282 280 277 277 273 270 268 268 267 268 270 270 270 271 269 267 267 268 266 262 260 257 257 254 250 251 247 250 259 268 277 267 225 263 242 216 244 234 225 236 235 260 275 275 273 271 272 275 281 282 285 292 296 296 296 294 293 291 289 287 287 287 286 286 286 285 285 287 288 287 287
305 303 302 301 302 301 301 300 300 298 297 294 293 291 288 281 281 280 277 273 272 271 270 264 267 266 266 266 265 263 261 261 260 259 259 255 254 254 253 250 250 247 254 259 263 274 264 251 258 253 228 252 239 254 259 257 260 266 270 268 267 264 271 280 286 287 287 286 287 288 288 285 284 284 284 283 282 281 282 282 285 286 286 286 290
306 304 305 307 307 309 309 308 309 310 309 308 307 304 301 298 294 291 290 286 283 279 278 274 270 267 268 266 263 261 260 259 260 259 254 254 254 254 251 252 252 250 252 256 262 271 272 251 251 259 245 238 250 238 253 254 253 253 252 254 259 266 272 273 271 270 274 279 283 285 283 281 281 282 284 283 282 281 281 283 284 287 289 289 286
316 318 317 314 312 311 309 308 308 306 305 304 303 301 296 296 294 292 291 289 284 281 278 277 274 270 269 266 263 263 260 260 261 261 258 257 255 254 248 249 250 251 243 254 255 263 271 268 259 252 257 224 255 225 248 248 248 239 247 252 256 259 265 263 260 259 272 281 283 282 280 280 281 282 281 279 279 279 279 279 281 285 285 284 285
318 313 310 308 309 309 307 306 304 303 301 298 296 294 293 293 293 290 288 287 286 285 283 279 277 276 273 271 270 268 266 265 261 261 259 257 254 252 253 250 253 251 247 244 255 258 262 265 259 259 250 235 238 248 242 242 248 242 247 249 255 255 250 255 262 268 272 277 279 279 280 280 279 277 275 275 275 277 280 280 281 281 280 279 281
311 311 311 312 311 309 306 303 302 298 298 301 303 303 300 299 296 294 294 292 290 288 287 285 282 277 272 273 270 270 270 266 262 262 258 261 256 256 256 255 254 255 252 251 245 255 261 267 257 253 248 247 232 246 241 238 239 242 237 247 248 247 250 253 259 266 267 272 275 277 278 277 276 278 281 281 281 282 281 280 279 278 277 279 281
315 314 312 311 307 305 303 306 310 313 313 311 307 304 301 296 294 293 290 288 283 281 280 281 284 284 281 278 279 278 276 272 270 265 264 261 262 262 261 257 256 252 254 249 249 248 255 257 264 253 254 250 232 235 235 237 239 243 240 240 244 248 248 250 255 257 264 271 273 275 276 275 274 275 277 278 279 279 278 277 274 273 274 277 281
316 315 313 311 312 313 314 313 309 307 308 306 301 299 298 298 296 292 291 290 291 289 286 282 280 276 272 270 271 270 268 268 269 269 268 265 261 258 255 253 253 251 251 249 249 250 250 254 256 264 250 251 246 226 225 230 234 248 245 236 239 245 249 251 248 252 254 259 263 264 267 268 270 272 273 275 275 275 276 276 274 273 275 279 279
318 315 315 316 315 312 311 312 312 310 307 307 308 305 303 301 298 294 290 286 278 276 272 273 271 272 272 271 273 267 264 262 270 275 283 285 283 277 276 277 276 275 267 260 255 252 250 253 251 250 256 249 242 241 218 224 226 231 245 243 239 230 240 239 252 248 250 254 256 261 263 264 264 265 268 269 270 272 271 271 273 274 276 278 281
315 317 320 317 316 316 314 312 311 311 308 302 299 298 298 297 302 302 301 300 300 298 298 297 297 294 292 290 288 286 283 277 273 273 273 275 275 272 267 263 263 262 261 261 260 258 254 250 250 253 247 253 247 236 220 224 236 235 228 238 247 245 243 236 238 249 249 245 252 254 260 266 267 267 267 269 270 271 272 272 273 276 276 277 276
319 317 316 316 316 314 313 314 313 314 312 311 312 311 312 310 309 307 306 303 301 298 295 293 290 289 288 286 284 283 282 282 281 280 277 275 272 271 267 263 262 260 259 259 257 262 259 258 256 249 251 248 245 244 232 217 227 232 224 220 239 239 245 248 242 235 240 252 251 251 251 250 258 257 253 255 258 264 267 269 270 270 271 272 271
316 317 317 315 312 312 312 311 311 310 308 306 306 308 308 309 308 306 303 299 298 296 295 293 292 290 289 288 286 284 284 284 283 282 281 280 277 275 276 272 269 269 267 264 262 254 257 255 254 259 256 253 247 238 238 228 229 231 233 229 237 237 239 238 246 240 240 240 246 250 246 240 249 256 256 257 255 258 261 262 260 258 259 263 268
319 321 316 313 314 314 313 312 312 310 307 306 307 309 310 309 307 304 301 300 299 297 294 293 291 292 289 288 286 285 285 284 283 281 280 278 277 276 275 274 272 270 270 267 262 262 259 257 255 252 255 257 251 246 240 232 220 228 232 223 236 239 237 238 246 240 223 235 244 248 250 247 247 251 253 250 252 250 251 256 258 264 266 270 273
318 317 316 315 314 315 312 312 311 309 306 307 309 310 310 309 308 306 304 301 298 294 293 291 291 289 290 289 287 286 283 282 282 281 280 279 278 279 278 277 276 274 271 268 267 264 260 261 260 254 247 243 255 250 246 236 228 230 232 230 230 232 235 229 231 241 226 221 238 245 254 245 237 243 249 249 249 252 251 253 261 264 271 274 275
316 318 317 315 316 316 314 313 311 309 306 307 309 310 310 310 310 308 303 301 298 298 297 297 293 292 291 290 288 283 283 283 284 279 278 278 274 274 276 274 273 272 272 272 271 270 270 267 263 262 257 257 250 243 240 243 239 239 237 239 232 228 232 234 233 238 240 234 241 249 257 252 247 246 253 248 248 252 255 255 259 267 270 271 273
318 316 317 316 316 317 316 315 312 310 307 308 310 312 313 313 311 311 307 304 302 299 298 295 294 291 288 286 287 282 280 279 276 277 273 272 273 272 269 267 267 264 267 268 266 267 267 266 264 262 257 252 254 253 246 242 245 237 228 234 237 238 231 234 235 235 237 229 232 241 249 240 240 248 250 254 251 247 252 255 262 267 269 271 271
318 318 317 316 315 315 315 312 310 308 303 306 310 312 312 312 311 311 307 303 296 292 292 285 286 286 281 281 280 278 279 276 275 273 276 271 273 268 270 267 264 266 261 256 261 254 254 252 256 261 265 258 257 253 245 239 239 243 241 240 238 237 238 244 252 246 244 230 236 233 252 251 247 253 254 254 253 255 254 258 264 267 269 270 272
317 315 313 311 312 311 310 309 308 305 302 304 308 311 312 313 313 312 306 298 294 288 279 284 281 276 279 275 271 276 272 274 274 274 270 275 272 271 266 265 262 259 257 258 259 261 259 253 247 248 251 253 252 252 246 243 239 237 236 236 242 247 247 245 243 234 232 223 223 232 248 251 239 247 256 257 255 257 257 258 258 264 267 268 267
317 314 312 312 309 308 308 307 305 304 301 302 307 309 310 311 311 306 302 298 294 284 286 279 273 279 276 275 275 268 271 271 267 274 273 270 269 265 266 264 256 260 255 255 255 257 260 261 261 260 258 256 254 254 250 246 242 230 224 231 231 224 231 237 243 239 241 230 226 222 244 252 238 239 248 247 254 258 253 255 256 258 263 266 268
314 313 310 305 303 300 301 300 297 298 296 297 303 304 306 307 309 306 300 292 280 287 277 279 278 271 278 273 272 275 270 273 272 265 271 272 266 267 264 263 260 253 254 243 257 252 253 257 257 260 262 263 262 262 261 259 253 245 238 231 227 223 232 230 242 235 242 232 228 216 238 242 245 235 246 253 256 249 254 251 254 257 261 264 265
308 308 307 306 303 300 295 293 291 292 292 292 298 306 305 304 306 303 301 293 284 276 279 277 282 274 273 280 272 277 280 268 279 275 268 272 280 271 266 265 262 253 250 247 243 251 244 248 246 249 254 257 260 260 265 264 262 257 249 248 241 232 228 231 237 241 248 242 234 212 233 236 236 236 238 251 253 255 243 246 250 253 251 248 254